DW8790 Maspalomas ES current weather conditions

sailwx.info

Wind from 339 at 2 knots gusting 4

Air temperature 21.1° C
Dewpoint 17.1° C

Last reported at 2014-Sep-21 05:50 UTC.
Time now 2014-Sep-21 06:12 UTC

Location: N 27°46' W 015°34'.
View on Google Maps.

See reports from other nearby stations

  
Tides and Currents Weather Stations Pressure Air Temp Water Temp Dewpoint Dewpoint Depression Visibility Wind Speed Wind Dir Waves Ship Positions
date/time (UTC)wind fromknots sea level pressurealtimeterstation pressurevisibilityair tempwater tempwave heightnotes
2014-Sep-21 05:50 339 2 gusting 4 21.1
2014-Sep-21 05:40 343 1 gusting 4 21.1
2014-Sep-21 05:30 349 2 gusting 5 21.1
2014-Sep-21 05:20 21.1
2014-Sep-21 05:10 005 4 gusting 6 21.7
2014-Sep-21 05:00 21.7
2014-Sep-21 04:50 340 2 gusting 5 21.7
2014-Sep-21 04:40 342 2 gusting 6 21.7
2014-Sep-21 04:30 343 3 gusting 5 21.7
2014-Sep-21 04:20 351 1 gusting 4 21.7
2014-Sep-21 04:10 355 1 gusting 5 21.7
2014-Sep-21 04:00 344 3 gusting 5 21.7
2014-Sep-21 03:50 005 1 gusting 4 21.7
2014-Sep-21 03:40 342 2 gusting 4 21.7
2014-Sep-21 03:30 355 0 gusting 2 21.7
2014-Sep-21 03:20 266 21.7
2014-Sep-21 03:10 266 21.7
2014-Sep-21 03:00 266 21.7
2014-Sep-21 02:50 266 21.7
2014-Sep-21 02:40 266 21.7
2014-Sep-21 02:30 266 21.7
2014-Sep-21 02:20 266 22.2
2014-Sep-21 02:10 266 22.2
2014-Sep-21 02:00 266 0 gusting 2 22.2
2014-Sep-21 01:50 266 0 gusting 2 22.8
2014-Sep-21 01:40 272 1 gusting 2 22.8
2014-Sep-21 01:30 211 1 gusting 2 22.8
2014-Sep-21 01:20 211 22.8
2014-Sep-21 01:10 211 22.8
2014-Sep-21 01:00 211 23.3
2014-Sep-21 00:50 211 23.3
2014-Sep-21 00:40 211 23.3
2014-Sep-21 00:30 211 1 gusting 2 23.3
2014-Sep-21 00:20 211 0 gusting 2 23.3
2014-Sep-21 00:10 211 0 gusting 2 23.3
2014-Sep-21 00:00 211 0 gusting 2 23.3
2014-Sep-20 23:50 211 1 gusting 2 23.3
2014-Sep-20 23:40 211 0 gusting 4 23.3
2014-Sep-20 23:30 105 23.3
2014-Sep-20 23:20 105 23.3
2014-Sep-20 23:10 105 23.3
2014-Sep-20 23:00 105 23.3
2014-Sep-20 22:50 105 0 gusting 2 23.3
2014-Sep-20 22:40 105 0 gusting 2 23.3
2014-Sep-20 22:30 105 1 gusting 2 23.3
2014-Sep-20 22:20 105 23.3
2014-Sep-20 22:10 105 23.3
2014-Sep-20 22:00 105 23.3
2014-Sep-20 21:50 105 2 gusting 2 23.3
2014-Sep-20 21:40 105 2 gusting 2 23.3
2014-Sep-20 21:30 105 23.3
2014-Sep-20 21:20 105 0 gusting 4 23.3
2014-Sep-20 21:10 138 23.3
2014-Sep-20 21:00 138 1 gusting 5 23.3
2014-Sep-20 20:50 119 2 gusting 6 23.3
2014-Sep-20 20:40 103 2 gusting 4 23.9
2014-Sep-20 20:30 103 3 gusting 6 23.9
2014-Sep-20 20:20 105 2 gusting 4 23.9
2014-Sep-20 20:10 110 2 gusting 5 23.9
2014-Sep-20 20:00 136 2 gusting 4 23.9
2014-Sep-20 19:50 090 1 gusting 6 23.9
2014-Sep-20 19:40 122 4 gusting 6 23.9
2014-Sep-20 19:30 097 0 gusting 5 23.9
2014-Sep-20 19:20 153 0 gusting 5 23.9
2014-Sep-20 19:10 136 2 gusting 6 23.9
2014-Sep-20 19:00 133 5 gusting 6 24.4
2014-Sep-20 18:50 108 1 gusting 6 24.4
2014-Sep-20 18:40 111 2 gusting 6 25.0
2014-Sep-20 18:30 108 5 gusting 6 25.0
2014-Sep-20 18:20 125 3 gusting 7 25.0
2014-Sep-20 18:10 144 4 gusting 7 25.6
2014-Sep-20 18:00 137 2 gusting 5 25.6
2014-Sep-20 17:50 099 1 gusting 6 25.0
2014-Sep-20 17:40 108 0 gusting 4 25.0
2014-Sep-20 17:30 102 0 gusting 8 25.0
2014-Sep-20 17:20 108 4 gusting 8 25.0
2014-Sep-20 17:10 103 5 gusting 8 25.6
2014-Sep-20 17:00 119 5 gusting 10 25.6
2014-Sep-20 16:50 158 5 gusting 10 25.6
2014-Sep-20 16:40 127 5 gusting 12 26.7
2014-Sep-20 16:30 105 6 gusting 11 27.2
2014-Sep-20 16:20 113 6 gusting 10 26.7
2014-Sep-20 16:10 128 5 gusting 10 26.7
2014-Sep-20 16:00 146 6 gusting 11 27.2
2014-Sep-20 15:50 139 6 gusting 8 27.2
2014-Sep-20 15:40 103 6 gusting 11 27.2
2014-Sep-20 15:30 132 4 gusting 7 26.7
2014-Sep-20 15:20 128 6 gusting 10 26.1
2014-Sep-20 15:10 109 3 gusting 10 26.7
2014-Sep-20 15:00 121 6 gusting 10 26.7
2014-Sep-20 14:50 120 6 gusting 15 26.7
2014-Sep-20 14:40 154 6 gusting 11 27.2
2014-Sep-20 14:30 145 6 gusting 11 26.7
2014-Sep-20 14:20 134 6 gusting 11 26.7
2014-Sep-20 14:10 153 6 gusting 10 27.2
2014-Sep-20 14:00 101 6 gusting 10 26.7
2014-Sep-20 13:50 112 6 gusting 12 27.2
2014-Sep-20 13:40 128 6 gusting 12 26.7
2014-Sep-20 13:30 147 7 gusting 11 27.2
2014-Sep-20 13:20 123 6 gusting 11 27.2
2014-Sep-20 13:10 122 9 gusting 13 27.2
2014-Sep-20 13:00 112 10 gusting 13 27.2
2014-Sep-20 12:50 106 8 gusting 12 27.2
2014-Sep-20 12:40 102 7 gusting 13 26.7
2014-Sep-20 12:30 119 9 gusting 13 26.7
2014-Sep-20 12:20 128 10 gusting 13 26.7
2014-Sep-20 12:10 125 9 gusting 13 26.1
2014-Sep-20 12:00 131 10 gusting 14 26.7
2014-Sep-20 11:50 101 10 gusting 13 26.1
2014-Sep-20 11:40 118 9 gusting 13 25.6
2014-Sep-20 11:30 116 8 gusting 14 25.6
2014-Sep-20 11:20 123 9 gusting 14 25.6
2014-Sep-20 11:10 122 10 gusting 14 25.6
2014-Sep-20 11:00 115 9 gusting 12 26.1
2014-Sep-20 10:50 121 10 gusting 13 26.7
2014-Sep-20 10:40 108 10 gusting 13 26.7
2014-Sep-20 10:30 114 9 gusting 13 26.7
2014-Sep-20 10:20 125 8 gusting 13 26.1
2014-Sep-20 10:10 112 7 gusting 13 26.1
2014-Sep-20 10:00 136 8 gusting 10 26.7
2014-Sep-20 09:50 130 6 gusting 10 26.7
2014-Sep-20 09:40 121 5 gusting 8 26.1
2014-Sep-20 09:30 130 4 gusting 7 26.1
2014-Sep-20 09:20 131 5 gusting 7 26.1
2014-Sep-20 09:10 134 3 gusting 5 26.1
2014-Sep-20 09:00 153 4 gusting 5 25.6
2014-Sep-20 08:50 015 25.0
2014-Sep-20 08:40 015 0 gusting 2 23.9
2014-Sep-20 08:30 015 0 gusting 2 22.8
2014-Sep-20 08:20 015 1 gusting 2 22.8
2014-Sep-20 08:10 015 22.2
2014-Sep-20 08:00 015 21.1
2014-Sep-20 07:50 015 1 gusting 2 20.6
2014-Sep-20 07:40 015 20.6
2014-Sep-20 07:30 015 20.6
2014-Sep-20 07:20 015 20.6
2014-Sep-20 07:10 015 20.6
2014-Sep-20 07:00 015 20.6
2014-Sep-20 06:50 015 20.6
2014-Sep-20 06:40 015 1 gusting 2 20.6
2014-Sep-20 06:30 015 1 gusting 2 20.6
2014-Sep-20 06:20 042 0 gusting 2 20.6
2014-Sep-20 06:10 022 1 gusting 2 20.6
2014-Sep-20 06:00 050 1 gusting 2 20.6
2014-Sep-20 05:50 050 2 gusting 4 20.6
2014-Sep-20 05:40 331 1 gusting 2 20.6
2014-Sep-20 05:30 331 1 gusting 2 20.6
2014-Sep-20 05:20 331 2 gusting 4 20.6
2014-Sep-20 05:10 348 0 gusting 2 20.6
2014-Sep-20 05:00 332 1 gusting 2 20.6
2014-Sep-20 04:50 306 0 gusting 2 20.6
2014-Sep-20 04:40 015 1 gusting 2 20.6
2014-Sep-20 04:30 015 20.6
2014-Sep-20 04:20 014 2 gusting 6 20.6
2014-Sep-20 04:10 359 1 gusting 6 20.6
2014-Sep-20 04:00 321 2 gusting 6 20.6
2014-Sep-20 03:50 315 1 gusting 2 20.6
2014-Sep-20 03:40 342 20.6
2014-Sep-20 03:30 342 20.6
2014-Sep-20 03:20 342 20.6
2014-Sep-20 03:10 342 1 gusting 4 20.6
2014-Sep-20 03:00 293 2 gusting 4 20.6
2014-Sep-20 02:50 310 21.1
2014-Sep-20 02:40 073 21.1
2014-Sep-20 02:30 073 0 gusting 2 21.1
2014-Sep-20 02:20 073 21.1
2014-Sep-20 02:10 073 0 gusting 1 21.1
2014-Sep-20 02:00 073 21.1
2014-Sep-20 01:50 073 0 gusting 2 21.1
2014-Sep-20 01:40 073 21.1
2014-Sep-20 01:30 073 1 gusting 2 21.1
2014-Sep-20 01:20 073 21.1
2014-Sep-20 01:10 073 21.1
2014-Sep-20 01:00 073 21.1
2014-Sep-20 00:50 073 21.1
2014-Sep-20 00:40 073 21.7
2014-Sep-20 00:30 073 0 gusting 2 21.7
2014-Sep-20 00:20 073 21.7
2014-Sep-20 00:10 073 21.7
2014-Sep-20 00:00 073 21.7
2014-Sep-19 23:50 073 22.2
2014-Sep-19 23:40 073 22.2
2014-Sep-19 23:30 075 2 gusting 4 22.2
2014-Sep-19 23:20 078 2 gusting 4 22.2
2014-Sep-19 23:10 078 1 gusting 5 22.8
2014-Sep-19 23:00 063 3 gusting 5 22.8
2014-Sep-19 22:50 061 3 gusting 6 22.8
2014-Sep-19 22:40 082 4 gusting 6 22.8
2014-Sep-19 22:30 068 3 gusting 6 22.8
2014-Sep-19 22:20 071 5 gusting 7 22.8
2014-Sep-19 22:10 078 3 gusting 7 22.8
2014-Sep-19 22:00 063 4 gusting 6 22.8
2014-Sep-19 21:50 074 4 gusting 6 22.8
2014-Sep-19 21:40 093 3 gusting 6 22.8
2014-Sep-19 21:30 078 3 gusting 6 22.8
2014-Sep-19 21:20 092 5 gusting 7 22.8
2014-Sep-19 21:10 085 4 gusting 7 22.8
2014-Sep-19 21:00 083 6 gusting 8 22.8
2014-Sep-19 20:50 082 6 gusting 10 23.3
2014-Sep-19 20:40 073 5 gusting 7 22.8
2014-Sep-19 20:30 092 6 gusting 8 23.3
2014-Sep-19 20:20 092 5 gusting 7 23.3
2014-Sep-19 20:10 095 7 gusting 10 23.3
2014-Sep-19 20:00 096 3 gusting 8 23.3
2014-Sep-19 19:50 096 6 gusting 7 23.3
2014-Sep-19 19:40 091 4 gusting 8 23.3
2014-Sep-19 19:30 093 6 gusting 10 23.3
2014-Sep-19 19:20 109 6 gusting 8 23.9
2014-Sep-19 19:10 088 5 gusting 10 23.9
2014-Sep-19 19:00 100 6 gusting 10 23.9
2014-Sep-19 18:50 095 6 gusting 10 24.4
2014-Sep-19 18:40 095 6 gusting 11 24.4
2014-Sep-19 18:30 087 7 gusting 11 24.4
2014-Sep-19 18:20 110 7 gusting 11 24.4
2014-Sep-19 18:10 100 7 gusting 13 24.4
2014-Sep-19 18:00 119 6 gusting 11 24.4
2014-Sep-19 17:50 107 8 gusting 11 24.4
2014-Sep-19 17:40 111 7 gusting 11 24.4
2014-Sep-19 17:30 107 7 gusting 11 25.0
2014-Sep-19 17:20 113 6 gusting 10 25.0
2014-Sep-19 17:10 110 7 gusting 11 25.0
2014-Sep-19 17:00 121 7 gusting 11 25.0
2014-Sep-19 16:50 127 6 gusting 10 25.0
2014-Sep-19 16:40 128 6 gusting 10 25.0
2014-Sep-19 16:30 123 6 gusting 10 25.6
2014-Sep-19 16:20 132 2 gusting 8 25.6
2014-Sep-19 16:10 113 6 gusting 10 25.6
2014-Sep-19 16:00 123 6 gusting 11 25.0
2014-Sep-19 15:50 119 6 gusting 11 25.0
2014-Sep-19 15:40 120 7 gusting 10 25.0
2014-Sep-19 15:30 111 6 gusting 11 25.6
2014-Sep-19 15:20 105 9 gusting 12 25.6
2014-Sep-19 15:10 106 7 gusting 11 25.6
2014-Sep-19 15:00 124 7 gusting 11 25.6
2014-Sep-19 14:50 126 7 gusting 12 25.6
2014-Sep-19 14:40 106 7 gusting 12 25.6
2014-Sep-19 14:30 127 5 gusting 11 25.6
2014-Sep-19 14:20 113 7 gusting 12 25.6
2014-Sep-19 14:10 109 7 gusting 11 25.6
2014-Sep-19 14:00 123 4 gusting 11 25.6
2014-Sep-19 13:50 126 2 gusting 11 25.6
2014-Sep-19 13:40 134 5 gusting 10 25.6
2014-Sep-19 13:30 124 5 gusting 8 26.1
2014-Sep-19 13:20 084 4 gusting 11 26.1
2014-Sep-19 13:10 101 6 gusting 10 26.7
2014-Sep-19 13:00 122 2 gusting 11 26.1
2014-Sep-19 12:50 134 5 gusting 10 26.7
2014-Sep-19 12:40 116 6 gusting 10 26.7
2014-Sep-19 12:30 180 4 gusting 8 27.2
2014-Sep-19 12:20 115 7 gusting 13 27.8
2014-Sep-19 12:10 127 7 gusting 13 28.3
2014-Sep-19 12:00 128 5 gusting 10 28.3
2014-Sep-19 11:50 132 5 gusting 8 27.8
2014-Sep-19 11:40 231 2 gusting 10 27.2
2014-Sep-19 11:30 228 5 gusting 10 27.2
2014-Sep-19 11:20 180 5 gusting 7 26.7
2014-Sep-19 11:10 229 3 gusting 8 26.7
2014-Sep-19 11:00 231 4 gusting 10 26.7
2014-Sep-19 10:50 245 3 gusting 6 26.1
2014-Sep-19 10:40 215 0 gusting 6 26.1
2014-Sep-19 10:30 258 1 gusting 6 26.1
2014-Sep-19 10:20 240 2 gusting 6 26.7
2014-Sep-19 10:10 285 4 gusting 6 26.1
2014-Sep-19 10:00 281 1 gusting 4 25.6
2014-Sep-19 09:50 217 1 gusting 5 25.6
2014-Sep-19 09:40 251 1 gusting 4 25.0
2014-Sep-19 09:30 217 1 gusting 5 24.4
2014-Sep-19 09:20 258 2 gusting 4 24.4
2014-Sep-19 09:10 223 0 gusting 2 24.4
2014-Sep-19 09:00 009 23.9
2014-Sep-19 08:50 009 0 gusting 2 23.9
2014-Sep-19 08:40 009 0 gusting 2 23.3
2014-Sep-19 08:30 009 0 gusting 2 23.3
2014-Sep-19 08:20 009 1 gusting 2 23.3
2014-Sep-19 08:10 009 1 gusting 2 22.8
2014-Sep-19 08:00 009 0 gusting 2 22.2
2014-Sep-19 07:50 009 0 gusting 2 21.7
2014-Sep-19 07:40 009 1 gusting 2 21.1
2014-Sep-19 07:30 009 1 gusting 2 21.1
2014-Sep-19 07:20 009 21.1
2014-Sep-19 07:10 009 21.1
2014-Sep-19 07:00 009 0 gusting 2 21.1
2014-Sep-19 06:50 009 0 gusting 2 21.1
2014-Sep-19 06:40 21.1
2014-Sep-19 06:30 21.1
2014-Sep-19 06:20 098 22.8
2014-Sep-19 06:10 098 22.8
2014-Sep-19 06:00 098 22.8